Location: ?????????
(53.2086°N, 54.0693°E)
Time: 08:06:52
(UTC+00:00)

Cosmos 1302 Rocket - Pass Details

Date: 08 December 2019
Orbit: 757 x 776 km, 74.0° (Epoch: 20 January)

Event Time Altitude Azimuth Distance (km) Brightness Sun altitude
Rises 13:17:59 0° 332° (NNW) 3,265 7.3 -9.9°
Reaches altitude 10° 13:20:24 10° 330° (NNW) 2,332 6.6 -10.2°
Maximum altitude 13:25:39 69° 248° (WSW) 829 4.4 -11.0°
Drops below altitude 10° 13:30:51 10° 167° (SSE) 2,304 6.6 -11.7°
Sets 13:33:13 0° 165° (SSE) 3,223 7.3 -12.0°
